| time (UTC) | temp F | wind direction | speed knots | gust knots | rain 1hr in | rain 24hr in | rain mn in | humidity % | barometer mb |
| 20260506030016 | 70 | 323 | 3.5 | 7.0 | 0.00 | 0.00 | 0.00 | 75 | 983.0 |
| 20260506025016 | 71 | 357 | 3.5 | 7.8 | 0.00 | 0.00 | 0.00 | 74 | 982.6 |
| 20260506024016 | 71 | 0.0 | 1.7 | 0.00 | 0.00 | 0.00 | 74 | 982.2 | |
| 20260506023016 | 72 | 316 | 2.6 | 6.1 | 0.00 | 0.00 | 0.00 | 73 | 981.9 |
| 20260506022016 | 73 | 346 | 0.9 | 1.7 | 0.00 | 0.00 | 0.00 | 72 | 981.6 |
| 20260506021056 | 73 | 278 | 0.0 | 1.7 | 0.00 | 0.00 | 0.00 | 71 | 981.4 |
| 20260506020016 | 74 | 0.0 | 0.0 | 0.00 | 0.00 | 0.00 | 70 | 981.1 | |
| 20260506015036 | 74 | 7 | 0.0 | 1.7 | 0.00 | 0.00 | 0.00 | 69 | 981.1 |
| 20260506014016 | 74 | 316 | 0.0 | 3.5 | 0.00 | 0.00 | 0.00 | 68 | 981.0 |
| 20260506013016 | 75 | 0.0 | 0.0 | 0.00 | 0.00 | 0.00 | 68 | 980.8 | |
| 20260506012016 | 75 | 0.0 | 0.9 | 0.00 | 0.00 | 0.00 | 68 | 981.1 | |
| 20260506011037 | 76 | 279 | 0.0 | 2.6 | 0.00 | 0.00 | 0.00 | 68 | 980.7 |
| 20260506010036 | 76 | 6 | 0.0 | 0.9 | 0.00 | 0.00 | 0.00 | 67 | 980.5 |
| 20260506005016 | 77 | 7 | 1.7 | 6.1 | 0.00 | 0.00 | 0.00 | 67 | 980.2 |
| 20260506004016 | 78 | 357 | 0.0 | 5.2 | 0.00 | 0.00 | 0.00 | 65 | 980.1 |
| 20260506003016 | 78 | 332 | 0.0 | 3.5 | 0.00 | 0.00 | 0.00 | 64 | 980.0 |
| 20260506002016 | 79 | 305 | 1.7 | 3.5 | 0.00 | 0.00 | 0.00 | 62 | 980.2 |
| 20260506001016 | 80 | 353 | 1.7 | 3.5 | 0.00 | 0.00 | 0.00 | 62 | 980.2 |
| 20260506000016 | 81 | 311 | 1.7 | 5.2 | 0.00 | 0.00 | 0.00 | 60 | 979.5 |
| 20260505235016 | 82 | 354 | 0.9 | 5.2 | 0.00 | 0.00 | 0.00 | 58 | 979.4 |
| 20260505234036 | 84 | 360 | 2.6 | 5.2 | 0.00 | 0.00 | 0.00 | 55 | 979.4 |
| 20260505233016 | 85 | 359 | 1.7 | 5.2 | 0.00 | 0.00 | 0.00 | 51 | 979.3 |
| 20260505232016 | 87 | 359 | 1.7 | 4.3 | 0.00 | 0.00 | 0.00 | 49 | 979.0 |
| 20260505231016 | 89 | 286 | 2.6 | 4.3 | 0.00 | 0.00 | 0.00 | 55 | 978.8 |
| 20260505230016 | 90 | 185 | 0.0 | 1.7 | 0.00 | 0.00 | 0.00 | 54 | 978.5 |
| 20260505225016 | 89 | 0.0 | 0.0 | 0.00 | 0.00 | 0.00 | 55 | 978.6 | |
| 20260505224116 | 89 | 0.0 | 0.0 | 0.00 | 0.00 | 0.00 | 54 | 978.6 | |
| 20260505223016 | 90 | 0.0 | 1.7 | 0.00 | 0.00 | 0.00 | 55 | 978.4 | |
| 20260505222016 | 90 | 231 | 0.9 | 3.5 | 0.00 | 0.00 | 0.00 | 55 | 978.2 |
| 20260505221016 | 90 | 0.0 | 0.0 | 0.00 | 0.00 | 0.00 | 54 | 978.2 | |
| 20260505220016 | 90 | 0.0 | 5.2 | 0.00 | 0.00 | 0.00 | 54 | 978.3 | |
| 20260505215016 | 91 | 291 | 0.0 | 5.2 | 0.00 | 0.00 | 0.00 | 52 | 978.4 |
| 20260505214016 | 91 | 227 | 0.9 | 4.3 | 0.00 | 0.00 | 0.00 | 53 | 978.5 |
| 20260505213016 | 91 | 251 | 0.9 | 5.2 | 0.00 | 0.00 | 0.00 | 54 | 978.6 |
| 20260505212016 | 91 | 206 | 1.7 | 6.1 | 0.00 | 0.00 | 0.00 | 55 | 978.8 |
| 20260505211016 | 90 | 256 | 1.7 | 7.0 | 0.00 | 0.00 | 0.00 | 56 | 978.9 |
| 20260505210036 | 89 | 237 | 7.0 | 12.2 | 0.00 | 0.00 | 0.00 | 56 | 978.9 |
| 20260505205016 | 89 | 149 | 0.0 | 2.6 | 0.00 | 0.00 | 0.00 | 58 | 979.0 |
| 20260505204036 | 88 | 213 | 1.7 | 7.0 | 0.00 | 0.00 | 0.00 | 58 | 979.2 |
| 20260505203016 | 88 | 232 | 0.9 | 7.0 | 0.00 | 0.00 | 0.00 | 58 | 979.3 |
| 20260505202036 | 88 | 209 | 0.0 | 5.2 | 0.00 | 0.00 | 0.00 | 58 | 979.4 |
| 20260505201016 | 89 | 186 | 0.0 | 5.2 | 0.00 | 0.00 | 0.00 | 58 | 979.3 |
| 20260505200016 | 88 | 258 | 0.9 | 9.6 | 0.00 | 0.00 | 0.00 | 59 | 979.4 |
| 20260505195016 | 88 | 247 | 3.5 | 7.8 | 0.00 | 0.00 | 0.00 | 59 | 979.4 |
| 20260505194017 | 87 | 200 | 3.5 | 9.6 | 0.00 | 0.00 | 0.00 | 62 | 979.6 |
| 20260505193036 | 86 | 192 | 1.7 | 3.5 | 0.00 | 0.00 | 0.00 | 64 | 979.4 |
| 20260505192016 | 86 | 238 | 3.5 | 8.7 | 0.00 | 0.00 | 0.00 | 64 | 979.5 |
| 20260505190016 | 84 | 241 | 3.5 | 8.7 | 0.00 | 0.00 | 0.00 | 66 | 979.7 |
| 20260505185016 | 84 | 198 | 0.9 | 4.3 | 0.00 | 0.00 | 0.00 | 66 | 979.8 |
| 20260505184016 | 84 | 184 | 2.6 | 4.3 | 0.00 | 0.00 | 0.00 | 66 | 979.7 |
| 20260505183016 | 84 | 201 | 2.6 | 5.2 | 0.00 | 0.00 | 0.00 | 67 | 979.8 |
| 20260505182016 | 84 | 153 | 0.9 | 2.6 | 0.00 | 0.00 | 0.00 | 68 | 979.7 |
| 20260505181036 | 83 | 184 | 3.5 | 7.8 | 0.00 | 0.00 | 0.00 | 67 | 979.8 |
| 20260505180016 | 83 | 214 | 1.7 | 5.2 | 0.00 | 0.00 | 0.00 | 69 | 979.9 |
| 20260505175036 | 83 | 191 | 2.6 | 6.1 | 0.00 | 0.00 | 0.00 | 68 | 979.8 |
| 20260505174016 | 82 | 214 | 4.3 | 7.0 | 0.00 | 0.00 | 0.00 | 68 | 979.8 |
| 20260505173016 | 82 | 235 | 2.6 | 7.8 | 0.00 | 0.00 | 0.00 | 70 | 980.0 |
| 20260505172016 | 81 | 247 | 0.9 | 9.6 | 0.00 | 0.00 | 0.00 | 72 | 979.9 |
| 20260505171036 | 80 | 204 | 2.6 | 6.1 | 0.00 | 0.00 | 0.00 | 72 | 980.1 |
| 20260505170016 | 80 | 195 | 1.7 | 6.1 | 0.00 | 0.00 | 0.00 | 72 | 980.2 |
| 20260505165016 | 81 | 189 | 5.2 | 9.6 | 0.00 | 0.00 | 0.00 | 71 | 979.9 |
| 20260505164036 | 80 | 226 | 4.3 | 13.0 | 0.00 | 0.00 | 0.00 | 73 | 979.9 |
| 20260505163016 | 80 | 204 | 3.5 | 8.7 | 0.00 | 0.00 | 0.00 | 73 | 979.9 |
| 20260505162036 | 80 | 199 | 3.5 | 6.1 | 0.00 | 0.00 | 0.00 | 73 | 979.8 |
| 20260505161016 | 79 | 186 | 0.0 | 7.0 | 0.00 | 0.00 | 0.00 | 74 | 979.8 |
| 20260505153016 | 78 | 224 | 4.3 | 10.4 | 0.00 | 0.00 | 0.00 | 77 | 979.7 |
| 20260505152016 | 77 | 233 | 1.7 | 8.7 | 0.00 | 0.00 | 0.00 | 79 | 979.7 |
| 20260505151016 | 77 | 213 | 0.0 | 6.1 | 0.00 | 0.00 | 0.00 | 80 | 979.8 |
| 20260505125016 | 72 | 213 | 0.9 | 4.3 | 0.00 | 0.00 | 0.00 | 87 | 979.4 |
| 20260505124036 | 72 | 189 | 0.9 | 5.2 | 0.00 | 0.00 | 0.00 | 88 | 979.4 |
| 20260505123016 | 72 | 190 | 0.9 | 1.7 | 0.00 | 0.00 | 0.00 | 88 | 979.1 |
| 20260505122016 | 72 | 215 | 0.9 | 3.5 | 0.00 | 0.00 | 0.00 | 88 | 979.0 |
| 20260505121016 | 71 | 176 | 4.3 | 7.0 | 0.00 | 0.00 | 0.00 | 88 | 979.0 |
| 20260505120016 | 71 | 199 | 3.5 | 7.0 | 0.00 | 0.00 | 0.00 | 88 | 979.0 |
| 20260505115016 | 71 | 0.0 | 3.5 | 0.00 | 0.00 | 0.00 | 88 | 978.9 | |
| 20260505114016 | 71 | 183 | 0.9 | 4.3 | 0.00 | 0.00 | 0.00 | 88 | 978.8 |
| 20260505113036 | 71 | 184 | 3.5 | 6.1 | 0.00 | 0.00 | 0.00 | 88 | 978.7 |
| 20260505112056 | 71 | 225 | 1.7 | 7.0 | 0.00 | 0.00 | 0.00 | 88 | 978.7 |
| 20260505111036 | 71 | 192 | 1.7 | 3.5 | 0.00 | 0.00 | 0.00 | 88 | 978.8 |
| 20260505102016 | 71 | 144 | 1.7 | 5.2 | 0.00 | 0.00 | 0.00 | 87 | 978.9 |
| 20260505101016 | 71 | 206 | 0.9 | 5.2 | 0.00 | 0.00 | 0.00 | 87 | 978.8 |
| 20260505100016 | 71 | 196 | 1.7 | 5.2 | 0.00 | 0.00 | 0.00 | 87 | 978.9 |
| 20260505095016 | 72 | 190 | 2.6 | 7.0 | 0.00 | 0.00 | 0.00 | 87 | 979.0 |
| 20260505094016 | 71 | 146 | 0.0 | 2.6 | 0.00 | 0.00 | 0.00 | 87 | 979.0 |
| 20260505093016 | 71 | 152 | 2.6 | 7.8 | 0.00 | 0.00 | 0.00 | 87 | 979.0 |
| 20260505092016 | 71 | 0.0 | 1.7 | 0.00 | 0.00 | 0.00 | 87 | 979.1 | |
| 20260505091016 | 71 | 228 | 2.6 | 9.6 | 0.00 | 0.00 | 0.00 | 88 | 979.3 |
| 20260505090016 | 71 | 202 | 0.9 | 7.8 | 0.00 | 0.00 | 0.00 | 88 | 979.1 |
| 20260505085036 | 71 | 205 | 0.0 | 5.2 | 0.00 | 0.00 | 0.00 | 88 | 979.2 |
| 20260505084016 | 71 | 171 | 1.7 | 4.3 | 0.00 | 0.00 | 0.00 | 88 | 979.2 |
| 20260505083016 | 71 | 203 | 1.7 | 5.2 | 0.00 | 0.00 | 0.00 | 88 | 979.2 |
| 20260505082016 | 71 | 212 | 0.9 | 5.2 | 0.00 | 0.00 | 0.00 | 88 | 979.3 |
| 20260505081036 | 71 | 196 | 0.9 | 4.3 | 0.00 | 0.00 | 0.00 | 87 | 979.3 |
| 20260505080016 | 71 | 188 | 0.9 | 2.6 | 0.00 | 0.00 | 0.00 | 87 | 979.4 |
| 20260505075056 | 71 | 185 | 0.0 | 1.7 | 0.00 | 0.00 | 0.00 | 86 | 979.5 |
| 20260505074016 | 71 | 182 | 2.6 | 4.3 | 0.00 | 0.00 | 0.00 | 86 | 979.7 |
| 20260505073016 | 71 | 198 | 0.0 | 2.6 | 0.00 | 0.00 | 0.00 | 85 | 979.9 |
| 20260505072016 | 72 | 184 | 0.9 | 2.6 | 0.00 | 0.00 | 0.00 | 85 | 980.1 |
| 20260505071016 | 72 | 182 | 0.9 | 8.7 | 0.00 | 0.00 | 0.00 | 84 | 980.1 |
| 20260505070016 | 72 | 192 | 1.7 | 7.0 | 0.00 | 0.00 | 0.00 | 84 | 980.2 |
| 20260505065016 | 72 | 199 | 0.0 | 4.3 | 0.00 | 0.00 | 0.00 | 83 | 980.3 |
| 20260505064016 | 72 | 179 | 0.9 | 4.3 | 0.00 | 0.00 | 0.00 | 83 | 980.5 |
| 20260505063056 | 72 | 193 | 1.7 | 4.3 | 0.00 | 0.00 | 0.00 | 82 | 980.5 |
| 20260505062036 | 72 | 213 | 0.0 | 4.3 | 0.00 | 0.00 | 0.00 | 81 | 980.4 |
| 20260505061036 | 73 | 186 | 0.9 | 3.5 | 0.00 | 0.00 | 0.00 | 81 | 980.5 |
| 20260505060016 | 73 | 203 | 1.7 | 5.2 | 0.00 | 0.00 | 0.00 | 80 | 980.6 |
| 20260505055016 | 73 | 197 | 1.7 | 5.2 | 0.00 | 0.00 | 0.00 | 79 | 980.6 |
| 20260505054016 | 73 | 196 | 1.7 | 4.3 | 0.00 | 0.00 | 0.00 | 79 | 980.6 |
| 20260505053016 | 73 | 161 | 0.0 | 3.5 | 0.00 | 0.00 | 0.00 | 78 | 980.9 |
| 20260505052016 | 73 | 192 | 3.5 | 7.0 | 0.00 | 0.00 | 0.00 | 77 | 980.9 |
| 20260505051016 | 73 | 145 | 0.0 | 2.6 | 0.00 | 0.00 | 0.00 | 77 | 981.0 |
| 20260505041016 | 74 | 193 | 0.9 | 3.5 | 0.00 | 0.00 | 0.00 | 74 | 981.2 |
| 20260505040036 | 74 | 181 | 0.0 | 1.7 | 0.00 | 0.00 | 0.00 | 74 | 981.3 |
| 20260505035036 | 74 | 162 | 0.9 | 5.2 | 0.00 | 0.00 | 0.00 | 73 | 981.1 |
| 20260505034016 | 74 | 223 | 0.9 | 4.3 | 0.00 | 0.00 | 0.00 | 73 | 981.1 |
| 20260505033016 | 75 | 195 | 1.7 | 3.5 | 0.00 | 0.00 | 0.00 | 72 | 981.1 |
| 20260505032016 | 75 | 166 | 1.7 | 3.5 | 0.00 | 0.00 | 0.00 | 72 | 981.2 |
| 20260505031016 | 75 | 173 | 1.7 | 4.3 | 0.00 | 0.00 | 0.00 | 71 | 981.3 |